Date,TemperatureHighF,TemperatureAvgF,TemperatureLowF,DewpointHighF,DewpointAvgF,DewpointLowF,HumidityHigh,HumidityAvg,HumidityLow,PressureMaxIn,PressureMinIn,WindSpeedMaxMPH,WindSpeedAvgMPH,GustSpeedMaxMPH,PrecipitationSumIn
2014-1-1,55.6,51.9,48.0,54.1,49.9,45.1,97,93,88,30.33,30.10,4,0,4,0.20
2014-1-2,62.2,56.2,45.7,61.3,54.8,35.8,100,95,68,30.11,29.75,12,1,18,1.23
2014-1-3,45.5,36.3,29.1,34.3,23.9,19.0,86,62,39,30.38,29.97,15,2,17,0.02
2014-1-4,53.4,43.6,31.6,46.9,36.8,22.8,92,77,67,30.36,30.14,6,2,10,0.00
2014-1-5,69.4,54.6,44.8,59.7,50.8,42.8,97,87,70,30.15,29.89,4,0,4,0.00
2014-1-6,64.9,49.3,30.2,63.1,40.3,10.6,98,73,41,30.37,29.83,11,2,17,0.07
2014-1-7,36.0,27.6,20.1,14.9,9.2,5.2,60,46,31,30.56,30.37,12,2,14,0.00
2014-1-8,50.5,37.4,24.1,39.4,28.0,14.4,83,69,56,30.53,30.41,11,2,11,0.00
2014-1-9,60.4,51.9,43.7,57.9,48.0,37.6,97,87,77,30.42,30.27,9,2,12,0.30
2014-1-10,75.9,66.2,59.2,71.1,64.7,58.3,99,95,83,30.28,30.06,6,1,8,0.44
2014-1-11,77.9,66.4,59.2,71.2,64.4,52.5,98,94,74,30.06,29.78,12,2,19,0.59
2014-1-12,65.1,52.1,40.6,53.4,42.6,35.8,95,73,36,30.22,29.92,6,1,10,0.01
2014-1-13,71.4,53.4,36.1,57.7,47.8,35.1,97,83,56,30.20,29.94,7,1,10,0.28
2014-1-14,69.3,58.1,44.1,62.1,54.8,42.4,98,90,56,30.02,29.83,7,1,13,0.60
2014-1-15,64.6,49.9,38.1,46.9,40.5,34.2,98,74,38,30.04,29.89,11,1,12,0.00
2014-1-16,50.4,40.3,30.2,34.7,26.7,15.3,90,61,31,30.14,29.98,15,1,15,0.00
2014-1-17,65.7,47.3,28.8,48.9,39.2,27.0,95,76,48,30.14,29.99,16,2,17,0.00
2014-1-18,53.1,41.6,31.5,30.9,24.3,19.6,89,52,30,30.26,30.05,10,2,15,0.00
2014-1-19,65.1,45.9,30.2,49.3,38.0,25.7,93,76,44,30.14,30.03,14,2,16,0.00
2014-1-20,67.3,48.8,33.8,43.3,36.6,31.3,96,69,28,30.12,29.97,10,1,11,0.00
2014-1-21,68.9,53.1,41.5,58.3,44.7,25.9,97,75,44,29.97,29.67,15,3,20,0.00
2014-1-22,47.8,36.2,27.7,28.6,22.6,16.5,90,60,29,30.19,29.91,11,2,15,0.00
2014-1-23,50.4,36.1,26.8,31.5,24.7,17.2,92,67,32,30.40,30.18,6,1,13,0.00
2014-1-24,45.9,37.4,32.5,30.0,17.2,6.6,88,47,22,30.55,30.32,6,1,12,0.00
2014-1-25,58.3,45.9,33.6,46.6,37.7,26.4,91,73,59,30.33,29.94,16,2,23,0.00
2014-1-26,57.9,45.9,36.3,46.6,38.9,31.1,97,80,39,30.08,29.96,4,0,5,0.00
2014-1-27,74.3,56.4,41.9,54.3,48.7,40.5,96,78,48,30.00,29.87,13,1,16,0.00
2014-1-28,59.5,48.4,36.3,55.2,47.1,35.2,97,95,83,30.12,29.96,6,1,10,0.25
2014-1-29,36.3,33.5,31.5,35.2,32.3,29.5,97,95,92,30.33,30.08,6,1,10,0.95
2014-1-30,41.2,35.5,30.6,32.2,29.5,26.1,93,79,64,30.31,30.16,7,1,9,0.95
2014-1-31,56.3,45.2,36.3,50.2,41.4,30.4,100,87,76,30.24,30.12,5,1,7,0.00
2014-2-1,63.3,55.1,50.5,59.7,53.5,48.6,98,95,88,30.14,30.06,3,0,4,0.02
2014-2-2,77.2,62.8,55.0,64.6,59.1,54.1,98,89,61,30.19,30.06,6,1,9,0.00
2014-2-3,82.0,71.0,63.3,68.4,65.7,61.7,97,85,62,30.08,29.99,10,2,14,0.00
2014-2-4,65.7,60.5,55.2,62.6,59.0,54.3,98,95,88,30.17,30.03,6,1,11,0.00
2014-2-5,80.4,64.7,53.1,72.1,60.9,45.0,99,88,65,30.09,29.91,9,1,15,0.49
2014-2-6,58.5,47.3,36.5,46.4,40.6,34.0,97,79,49,30.29,30.09,7,1,12,0.13
2014-2-7,58.3,49.8,42.1,47.5,44.0,41.0,100,81,61,30.29,30.18,9,1,10,0.33
2014-2-8,59.4,50.3,40.8,49.3,45.2,39.7,100,83,67,30.22,30.09,6,1,7,0.00
2014-2-9,40.8,37.2,34.3,39.6,36.4,33.6,97,97,96,30.16,30.10,1,0,1,0.00
2014-2-10,71.1,57.9,50.9,50.9,49.2,47.5,89,75,44,30.07,30.02,4,0,5,0.00
2014-2-11,65.5,51.0,43.3,54.1,47.1,41.5,97,87,63,30.20,30.02,13,2,13,0.00
2014-2-12,43.5,41.0,37.9,41.7,40.0,36.9,97,96,92,30.16,29.69,13,2,18,0.29
2014-2-13,53.2,41.4,36.0,41.4,37.3,34.9,97,86,61,29.94,29.66,16,3,18,0.07
2014-2-14,65.5,48.6,30.9,45.7,38.0,29.5,96,71,37,30.03,29.85,7,2,12,0.00
2014-2-15,62.4,51.1,36.7,49.3,41.4,30.7,94,73,33,30.14,29.72,14,2,15,0.05
2014-2-16,67.3,48.1,33.6,44.1,35.6,30.2,95,68,28,30.21,30.07,7,1,10,0.00
2014-2-17,73.6,53.1,35.6,49.1,41.2,34.5,97,70,33,30.25,30.14,6,1,11,0.00
2014-2-18,74.7,58.5,43.2,61.2,51.9,41.7,95,80,60,30.24,30.14,6,1,9,0.00
2014-2-19,81.3,63.3,49.5,57.4,52.9,48.4,97,74,37,30.17,30.04,10,1,13,0.00
2014-2-20,85.5,65.6,48.6,65.3,56.7,47.5,97,77,35,30.16,30.02,9,1,11,0.00
2014-2-21,72.7,64.0,58.5,68.7,62.0,57.4,98,93,84,30.06,29.96,6,1,14,0.63
2014-2-22,74.8,60.9,45.7,59.9,46.4,37.2,94,63,33,30.16,30.03,6,1,9,0.00
2014-2-23,61.5,54.3,43.2,60.6,53.0,41.0,98,95,88,30.12,29.96,5,0,6,0.15
2014-2-24,76.5,64.1,54.1,63.9,57.0,50.2,100,81,42,30.08,29.96,6,1,9,0.02
2014-2-25,78.6,62.8,49.3,64.4,54.0,46.9,98,77,35,30.07,29.91,7,1,12,0.00
2014-2-26,60.6,54.4,45.9,59.5,53.0,44.4,97,95,89,29.92,29.74,7,1,10,0.43
2014-2-27,57.4,46.8,37.9,44.6,37.4,27.5,96,73,34,29.99,29.85,7,1,10,0.08
2014-2-28,65.8,46.9,30.0,48.7,34.5,22.5,96,70,23,30.18,29.97,7,1,7,0.00
2014-3-1,69.6,55.3,45.7,52.7,48.3,37.4,96,81,34,30.28,30.10,5,1,7,0.00
2014-3-2,75.6,56.5,42.4,56.7,47.9,41.7,98,77,37,30.25,30.05,5,1,7,0.00
2014-3-3,81.1,64.7,49.1,64.8,57.7,47.7,97,80,53,30.05,29.86,16,2,17,0.00
2014-3-4,60.6,47.1,43.0,55.0,44.1,38.5,96,89,82,30.15,30.01,9,2,12,0.00
2014-3-5,45.7,42.4,38.8,45.0,40.8,37.0,97,94,84,30.14,30.05,5,1,6,0.20
2014-3-6,48.0,45.2,40.8,47.1,44.4,40.1,97,97,95,30.12,29.84,12,2,14,0.05
2014-3-7,50.2,44.1,40.5,45.0,41.9,39.7,97,92,81,30.07,29.78,7,1,11,0.33
2014-3-8,70.5,52.2,36.9,51.6,44.6,35.8,100,79,45,30.18,30.04,6,1,10,0.00
2014-3-9,76.5,59.3,44.6,55.6,49.9,42.4,94,74,41,30.19,30.06,6,1,15,0.00
2014-3-10,79.9,63.3,48.9,57.0,52.7,47.5,96,72,40,30.10,29.91,9,2,14,0.00
2014-3-11,81.9,65.5,51.3,60.4,55.6,49.8,96,73,41,29.96,29.78,7,1,10,0.00
2014-3-12,78.4,66.6,57.4,65.1,59.4,45.9,97,79,53,29.81,29.60,15,3,23,0.09
2014-3-13,62.2,50.6,38.5,45.9,31.8,25.3,91,51,27,30.24,29.82,14,2,16,0.00
2014-3-14,71.4,50.5,31.6,48.6,39.7,30.4,96,71,36,30.33,30.16,8,1,11,0.05
2014-3-15,77.2,59.2,45.1,54.5,48.2,43.3,100,72,34,30.20,30.02,8,1,12,0.00
2014-3-16,82.8,64.0,51.4,62.2,57.4,49.8,97,82,47,30.03,29.69,14,2,19,0.28
2014-3-17,66.4,61.4,58.3,64.2,60.4,57.4,99,96,91,29.79,29.66,5,1,15,1.23
2014-3-18,60.3,52.8,46.2,59.4,50.7,45.5,97,93,80,30.09,29.69,8,1,11,0.03
2014-3-19,60.4,53.1,47.1,54.7,50.3,46.2,97,90,79,30.17,30.05,5,1,10,0.02
2014-3-20,77.7,60.4,43.9,59.4,52.0,43.2,98,78,39,30.09,29.97,7,1,10,0.01
2014-3-21,78.3,61.3,47.5,53.4,46.2,35.1,97,64,26,30.15,30.04,9,1,11,0.00
2014-3-22,81.9,65.8,54.7,66.0,59.3,53.2,96,82,49,30.07,29.92,8,1,10,0.00
2014-3-23,78.1,66.0,52.9,62.4,58.6,52.0,97,79,52,30.01,29.89,9,2,11,0.00
2014-3-24,61.9,56.8,52.7,58.1,48.5,43.2,89,74,62,30.17,29.97,13,2,16,0.00
2014-3-25,73.2,58.3,46.6,56.3,42.1,23.0,94,61,25,30.12,29.79,18,3,19,0.00
2014-3-26,60.4,46.2,32.4,37.6,25.5,18.3,83,47,22,30.33,30.12,7,1,13,0.00
2014-3-27,70.9,54.2,39.0,53.1,45.9,36.3,94,76,48,30.37,30.23,8,1,13,0.00
2014-3-28,78.6,63.7,50.4,66.0,59.4,48.9,97,87,58,30.24,30.01,9,1,13,0.12
2014-3-29,78.3,68.6,63.3,70.0,64.5,56.1,98,88,66,30.01,29.77,15,2,15,0.37
2014-3-30,73.0,59.0,47.8,56.5,43.5,35.1,87,60,26,30.07,29.88,9,2,16,0.00
2014-3-31,80.1,58.0,40.5,46.2,42.3,37.2,95,63,22,30.16,30.06,6,1,7,0.00
2014-4-1,85.5,62.8,43.0,54.1,44.8,34.2,97,61,17,30.19,30.07,6,1,10,0.00
2014-4-2,86.2,65.5,46.0,59.9,51.2,44.6,96,65,28,30.19,30.08,5,1,10,0.00
2014-4-3,88.9,69.5,50.2,63.5,56.9,48.7,96,69,35,30.13,29.98,6,1,10,0.00
2014-4-4,84.0,69.7,55.9,66.0,60.7,54.9,97,76,46,30.06,29.91,13,1,15,0.00
2014-4-5,83.1,69.7,61.5,70.3,63.7,58.6,97,83,53,30.02,29.92,8,1,13,0.33
2014-4-6,74.1,67.0,62.8,69.4,65.1,60.8,98,94,82,30.03,29.94,6,1,10,0.08
2014-4-7,77.4,68.2,63.9,70.5,65.8,62.8,98,92,77,29.96,29.76,9,1,11,0.85
2014-4-8,72.3,66.0,59.4,66.9,61.8,52.0,98,87,66,29.79,29.65,10,2,14,1.47
2014-4-9,74.5,61.6,52.2,54.0,50.8,46.6,93,71,39,30.15,29.78,10,2,11,0.00
2014-4-10,78.6,62.4,47.1,54.0,48.8,40.6,100,67,31,30.30,30.15,6,1,9,0.00
2014-4-11,80.1,64.8,50.7,60.3,53.9,49.6,97,72,39,30.29,30.14,5,0,9,0.00
2014-4-12,83.5,67.6,54.0,64.9,57.0,52.7,96,73,41,30.23,30.12,6,1,9,0.00
2014-4-13,83.3,67.4,53.2,64.6,59.0,52.2,97,77,45,30.19,30.04,9,1,10,0.00
2014-4-14,84.6,71.4,60.1,72.3,65.5,58.8,97,83,61,30.06,29.83,9,1,11,0.00
2014-4-15,70.3,63.6,47.8,69.1,61.1,43.7,97,92,81,30.01,29.69,10,1,15,1.85
2014-4-16,62.2,51.0,41.4,50.7,44.0,37.9,89,77,60,30.27,30.01,14,2,15,0.00
2014-4-17,66.6,57.6,47.8,58.8,53.4,45.3,93,86,74,30.35,30.23,11,2,17,0.00
2014-4-18,63.9,61.0,58.8,62.8,59.5,57.0,97,95,87,30.24,29.90,11,2,15,2.11
2014-4-19,63.7,60.3,57.4,62.6,59.4,56.5,97,97,95,30.03,29.86,5,1,7,0.23
2014-4-20,59.7,56.5,53.4,57.6,54.8,52.3,97,94,88,30.13,30.00,7,1,12,0.08
2014-4-21,78.6,64.0,51.3,63.0,56.8,50.2,97,80,49,30.11,29.96,5,1,7,0.00
2014-4-22,83.7,68.2,53.2,63.5,58.5,52.2,99,75,42,29.97,29.78,8,1,9,0.00
2014-4-23,85.1,71.3,61.2,65.7,62.8,59.5,96,77,47,29.92,29.82,7,1,10,0.00
2014-4-24,85.6,71.1,59.5,68.2,63.1,58.5,97,79,43,30.00,29.90,5,0,6,0.00
2014-4-25,82.4,70.9,61.0,69.8,65.2,59.9,97,83,63,29.98,29.86,9,1,14,0.00
2014-4-26,84.9,71.7,61.5,66.6,62.7,57.0,97,77,41,30.02,29.90,5,1,9,0.00
2014-4-27,88.0,72.0,57.9,70.0,63.9,57.0,97,78,46,30.02,29.90,5,1,7,0.00
2014-4-28,90.0,76.2,64.2,71.6,67.8,63.1,97,78,50,29.95,29.83,7,1,11,0.00
2014-4-29,84.0,72.3,66.9,73.0,68.5,65.5,96,88,66,29.96,29.84,6,0,11,0.04
2014-4-30,82.0,72.9,64.8,72.0,66.6,63.7,97,82,56,30.06,29.92,9,1,11,0.00
2014-5-1,75.0,68.8,64.9,69.6,66.4,63.9,96,92,82,30.02,29.91,3,0,4,0.06
2014-5-2,66.6,63.2,60.6,64.0,59.9,56.7,97,89,73,29.98,29.90,5,0,7,0.03
2014-5-3,75.0,64.8,56.8,61.3,57.8,51.3,97,81,47,30.03,29.90,5,0,9,0.05
2014-5-4,87.4,68.5,51.4,61.3,54.2,48.7,99,67,29,30.09,29.97,5,1,9,0.00
2014-5-5,92.1,73.5,55.6,64.8,58.5,52.3,96,65,27,30.05,29.92,7,1,8,0.00
2014-5-6,90.9,75.3,61.2,63.1,59.5,52.9,89,62,30,30.03,29.94,7,1,11,0.00
2014-5-7,91.8,76.5,58.6,67.3,61.8,55.9,95,66,31,30.13,30.00,6,1,10,0.00
2014-5-8,91.4,75.8,61.3,72.0,65.5,58.1,97,75,35,30.22,30.10,6,1,10,0.00
2014-5-9,91.6,77.0,65.5,70.7,66.6,58.1,97,74,34,30.19,30.06,6,1,10,0.00
2014-5-10,87.3,76.3,65.7,72.1,68.0,64.4,97,78,50,30.15,30.02,9,1,10,0.00
2014-5-11,89.4,73.6,64.4,72.3,68.1,63.3,96,85,50,30.15,30.04,10,0,13,0.01
2014-5-12,88.5,73.6,62.4,72.7,65.9,61.5,97,80,46,30.19,30.10,6,1,9,0.00
2014-5-13,87.3,73.5,61.7,72.9,66.7,60.8,98,82,53,30.15,30.07,6,1,9,0.00
2014-5-14,87.6,74.7,62.6,75.9,69.8,61.7,97,86,62,30.12,29.95,9,1,12,0.00
2014-5-15,78.1,72.7,64.0,74.3,70.4,57.4,97,92,79,30.00,29.85,7,1,16,1.54
2014-5-16,78.3,64.5,52.2,57.4,51.8,46.9,93,67,38,30.11,29.98,13,2,15,0.00
2014-5-17,80.1,65.0,50.0,53.8,48.3,38.7,92,60,25,30.22,30.11,6,1,9,0.00
2014-5-18,84.7,67.8,51.4,60.8,55.7,50.0,96,69,36,30.19,30.10,4,0,6,0.00
2014-5-19,81.3,67.2,56.5,70.5,61.3,55.4,96,83,56,30.21,30.13,10,1,10,0.03
2014-5-20,81.9,67.7,55.9,65.1,57.9,51.6,97,74,41,30.27,30.18,6,1,10,0.00
2014-5-21,89.4,73.1,56.7,69.4,62.7,55.2,96,73,45,30.21,30.06,6,1,9,0.00
2014-5-22,92.8,78.6,65.3,71.1,66.8,63.3,96,70,42,30.12,29.96,9,1,14,0.00
2014-5-23,95.2,80.6,67.5,72.9,69.0,63.5,94,71,43,30.05,29.95,7,1,11,0.00
2014-5-24,93.4,78.5,66.7,74.1,68.7,64.2,95,75,41,30.06,29.98,6,1,10,0.00
2014-5-25,88.3,74.8,67.6,76.8,70.6,65.8,97,88,61,30.19,30.04,9,1,12,0.26
2014-5-26,85.6,73.9,68.2,75.9,70.5,66.9,97,90,64,30.21,30.11,6,0,12,0.08
2014-5-27,87.3,75.2,63.3,74.1,69.3,62.4,98,83,58,30.17,30.02,5,0,6,0.00
2014-5-28,91.0,75.9,66.9,72.7,68.6,64.0,97,81,41,30.08,29.97,12,0,13,0.79
2014-5-29,90.9,73.4,66.2,76.1,69.9,65.3,98,90,49,30.04,29.98,6,0,12,0.68
2014-5-30,88.0,75.0,68.0,75.9,71.3,67.1,98,89,63,30.04,29.98,4,0,9,0.00
2014-5-31,88.0,76.3,69.4,75.7,71.5,68.5,98,86,57,30.08,29.98,6,1,10,0.00
2014-6-1,76.3,71.5,66.9,72.7,68.1,61.9,97,89,75,30.17,30.05,11,1,16,0.05
2014-6-2,82.6,72.0,63.9,70.7,64.7,62.1,97,79,59,30.18,30.10,6,1,9,0.00
2014-6-3,84.2,72.4,61.2,68.5,64.4,60.3,97,78,52,30.12,30.00,5,0,7,0.00
2014-6-4,88.5,75.4,61.9,71.2,66.0,60.6,97,75,50,30.02,29.88,6,0,7,0.00
2014-6-5,92.7,79.3,65.3,73.0,68.7,63.1,94,72,48,29.94,29.82,7,1,11,0.00
2014-6-6,94.5,80.5,71.8,76.1,71.5,68.5,96,76,49,30.01,29.83,7,1,11,1.03
2014-6-7,84.4,75.6,68.7,75.2,71.3,67.8,97,87,70,30.02,29.80,5,1,9,1.51
2014-6-8,92.5,79.2,68.9,79.0,72.3,67.1,97,82,47,29.96,29.86,8,1,12,0.00
2014-6-9,93.2,81.5,70.2,77.5,73.2,68.7,96,78,49,29.96,29.86,9,1,10,0.00
2014-6-10,94.6,79.9,70.2,77.0,72.4,67.8,97,80,50,29.99,29.88,8,1,14,0.20
2014-6-11,87.3,73.9,67.6,79.2,71.4,66.7,97,92,67,29.98,29.86,8,1,17,0.69
2014-6-12,86.0,75.7,68.5,76.1,71.8,65.7,97,88,62,29.96,29.85,11,1,16,0.25
2014-6-13,90.9,79.6,72.9,77.2,72.0,66.6,96,79,51,29.94,29.85,5,1,9,0.02
2014-6-14,90.9,78.5,69.1,74.5,69.7,65.7,94,76,45,30.03,29.94,5,1,7,0.00
2014-6-15,92.3,78.1,68.7,75.7,71.7,67.5,96,82,48,30.11,30.01,6,1,7,0.00
2014-6-16,91.2,79.0,69.6,77.0,72.2,68.4,96,81,59,30.17,30.06,9,1,11,0.00
2014-6-17,91.4,77.7,68.5,75.7,70.2,62.6,97,80,49,30.18,30.09,6,1,11,0.00
2014-6-18,90.7,77.4,65.1,75.9,69.7,64.0,97,79,51,30.15,30.06,5,1,10,0.00
2014-6-19,95.0,81.2,67.8,74.7,69.7,66.0,96,71,42,30.14,30.02,4,0,6,0.00
2014-6-20,99.0,79.4,68.4,76.3,70.1,66.2,95,77,36,30.06,29.92,6,1,15,1.13
2014-6-21,95.4,80.3,69.3,78.6,72.3,67.8,96,79,49,29.98,29.82,16,1,18,0.09
2014-6-22,95.5,76.4,70.0,78.8,71.9,68.2,95,87,53,29.93,29.83,13,1,13,0.38
2014-6-23,87.1,75.7,71.1,77.2,72.0,68.9,95,89,69,30.06,29.92,7,0,12,1.34
2014-6-24,91.0,76.9,69.6,77.7,72.1,67.1,95,86,57,30.12,30.01,14,0,24,0.57
2014-6-25,95.2,81.8,70.3,78.1,73.3,68.9,96,77,49,30.11,29.96,5,1,7,0.00
2014-6-26,95.4,83.1,73.8,77.9,74.4,71.8,94,77,50,30.07,29.93,4,1,7,0.00
2014-6-27,93.9,84.1,74.5,77.5,74.1,70.9,92,74,48,30.06,29.97,7,1,9,0.00
2014-6-28,94.8,83.6,74.1,77.0,73.7,70.7,91,74,50,30.14,30.04,7,1,9,0.00
2014-6-29,91.0,80.7,71.8,78.1,74.0,69.6,94,81,58,30.15,30.04,5,1,10,0.00
2014-6-30,92.8,81.0,72.3,77.4,72.0,65.7,95,77,49,30.09,29.94,5,1,9,0.00
2014-7-1,93.0,81.3,71.8,76.3,72.6,69.4,95,77,52,29.98,29.89,6,1,7,0.00
2014-7-2,92.5,81.8,73.4,78.6,73.7,71.4,95,78,56,29.94,29.87,10,1,13,0.00
2014-7-3,95.7,78.9,72.9,79.2,72.4,68.7,94,82,55,29.98,29.86,8,1,11,0.00
2014-7-4,92.8,80.8,70.3,72.5,70.0,66.2,96,73,45,30.07,29.98,5,1,9,0.00
2014-7-5,88.7,75.3,68.7,78.1,71.8,66.9,95,89,69,30.11,30.04,5,0,12,1.18
2014-7-6,91.0,78.7,71.2,79.5,73.4,70.0,96,85,57,30.10,30.00,6,1,7,0.22
2014-7-7,93.7,80.3,69.3,76.1,71.9,67.8,96,78,51,30.09,29.99,5,1,11,0.01
2014-7-8,95.5,82.4,70.2,76.1,72.0,68.4,96,74,44,30.13,30.00,6,1,8,0.00
2014-7-9,94.1,82.4,71.4,78.3,72.4,68.4,96,74,45,30.09,29.97,6,1,9,0.00
2014-7-10,93.7,79.6,71.2,76.8,73.1,69.1,96,82,51,30.10,30.00,6,1,11,0.49
2014-7-11,91.0,77.9,71.4,78.1,73.7,70.2,97,88,59,30.16,30.07,5,0,9,0.15
2014-7-12,83.1,76.1,73.2,77.4,73.5,71.8,97,92,77,30.17,30.09,4,0,6,0.40
2014-7-13,90.1,78.9,70.9,78.1,73.9,69.6,97,86,63,30.14,30.02,6,0,6,0.00
2014-7-14,96.3,82.6,73.6,78.4,74.3,71.2,96,78,49,30.09,29.94,6,1,13,0.00
2014-7-15,93.9,79.5,73.0,77.7,73.2,70.0,96,82,52,29.98,29.86,10,1,12,0.00
2014-7-16,90.7,78.1,73.0,78.3,73.9,71.6,96,88,62,29.90,29.81,9,1,10,0.10
2014-7-17,88.5,76.3,71.4,73.8,71.0,64.6,97,86,48,30.02,29.88,3,0,4,0.00
2014-7-18,93.0,80.0,70.3,77.5,72.4,68.9,97,79,52,30.09,30.00,6,1,9,0.00
2014-7-19,88.7,79.5,72.5,78.8,74.3,70.7,96,85,65,30.09,30.00,5,0,11,0.00
2014-7-20,94.6,81.3,71.6,76.1,73.4,69.8,96,79,50,30.06,29.98,6,1,6,0.00
2014-7-21,88.0,77.5,71.2,80.2,74.1,69.4,97,90,68,30.07,29.99,6,0,12,0.80
2014-7-22,91.2,79.0,72.7,78.4,74.5,71.4,97,87,60,30.09,30.00,5,0,8,0.35
2014-7-23,97.2,82.4,72.5,79.2,75.0,71.1,97,81,44,30.07,29.95,5,0,5,0.00
2014-7-24,96.3,83.6,72.9,78.3,74.3,70.9,96,76,49,30.01,29.90,8,1,10,0.00
2014-7-25,96.6,82.9,73.8,78.3,74.7,71.8,96,79,48,30.04,29.94,6,1,7,0.49
2014-7-26,92.5,81.0,73.0,81.7,75.9,71.8,97,85,64,30.05,29.95,6,1,8,0.16
2014-7-27,97.0,84.1,75.7,80.8,76.2,73.4,96,79,50,30.04,29.93,7,1,10,0.00
2014-7-28,97.9,86.3,77.5,81.7,77.0,73.4,93,76,48,29.96,29.83,9,2,13,0.00
2014-7-29,94.5,83.0,73.6,77.0,69.2,61.5,93,67,36,29.94,29.85,5,1,10,0.00
2014-7-30,92.7,79.1,67.6,74.3,68.3,62.8,92,72,42,29.97,29.90,6,0,10,0.00
2014-7-31,93.0,80.5,70.7,77.4,71.2,66.0,97,76,43,29.99,29.92,10,0,10,0.00
2014-8-1,93.7,80.6,72.3,79.0,73.8,69.8,96,82,48,29.98,29.90,6,0,7,0.15
2014-8-2,93.6,80.5,71.1,78.8,75.0,70.2,98,85,57,30.01,29.92,7,1,12,0.15
2014-8-3,90.5,79.8,71.8,79.2,74.4,70.5,97,84,61,30.01,29.91,11,1,11,0.04
2014-8-4,87.3,79.5,74.5,78.1,74.8,73.0,96,86,69,29.96,29.89,7,1,12,0.00
2014-8-5,92.7,81.1,73.6,77.4,73.8,68.7,96,81,48,30.04,29.93,5,0,7,0.00
2014-8-6,99.7,83.4,72.7,76.6,72.8,68.9,97,74,38,30.03,29.93,6,1,12,0.00
2014-8-7,98.1,82.6,70.9,78.3,72.5,68.7,96,74,43,29.99,29.88,4,1,9,0.00
2014-8-8,96.6,81.7,72.7,79.7,73.6,70.9,96,78,48,30.04,29.92,6,1,14,0.00
2014-8-9,95.4,78.9,72.1,80.1,74.0,70.3,97,86,53,30.04,29.93,5,0,10,0.85
2014-8-10,94.6,78.5,72.0,80.6,74.5,70.7,98,89,56,30.02,29.94,7,0,7,0.49
2014-8-11,91.2,78.8,72.9,79.9,74.5,71.6,97,88,60,30.00,29.90,8,0,13,0.21
2014-8-12,91.6,78.9,75.0,80.1,75.8,73.8,96,91,67,29.94,29.85,5,1,12,1.01
2014-8-13,88.9,78.6,73.8,79.7,75.6,72.5,98,91,71,29.96,29.90,6,0,9,0.10
2014-8-14,90.5,79.3,73.8,81.0,75.4,72.1,97,88,69,30.00,29.92,4,0,9,0.00
2014-8-15,92.7,78.5,70.5,79.9,74.3,69.3,97,88,62,30.01,29.91,5,0,7,0.00
2014-8-16,95.7,83.6,75.6,78.4,74.6,69.4,96,77,43,30.03,29.95,6,0,6,0.00
2014-8-17,97.0,82.1,72.1,78.1,73.8,70.5,96,78,45,30.06,29.96,6,1,9,0.00
2014-8-18,94.8,81.5,73.0,78.8,74.1,70.5,97,80,54,30.01,29.88,8,1,10,0.00
2014-8-19,95.4,80.2,73.2,79.7,74.0,69.8,97,83,50,29.99,29.91,7,1,11,0.00
2014-8-20,97.2,83.0,70.9,78.8,74.1,69.1,97,77,50,30.05,29.93,5,1,7,0.00
2014-8-21,100.2,84.1,71.1,78.1,72.8,68.7,95,73,38,30.11,29.99,5,1,8,0.00
2014-8-22,102.0,85.8,72.7,80.2,74.4,70.5,95,72,38,30.06,29.94,5,0,9,0.00
2014-8-23,102.9,86.9,75.6,78.4,75.1,72.1,95,71,39,29.96,29.80,5,0,10,0.00
2014-8-24,92.1,79.0,73.9,81.7,74.9,71.2,95,88,68,29.92,29.78,13,1,17,0.62
2014-8-25,86.2,77.8,71.6,73.2,70.0,67.6,92,78,57,29.97,29.89,9,1,10,0.00
2014-8-26,88.9,77.7,71.2,76.3,71.0,67.5,95,81,51,30.01,29.93,12,1,12,0.04
2014-8-27,93.0,77.6,66.7,70.3,66.8,61.0,97,73,37,30.03,29.94,6,1,10,0.00
2014-8-28,95.5,76.8,61.9,71.6,66.2,56.5,97,74,32,30.03,29.94,6,0,7,0.00
2014-8-29,96.1,79.2,64.9,77.7,70.4,63.5,98,78,40,30.07,29.99,6,1,8,0.00
2014-8-30,95.7,81.7,72.5,79.2,74.8,71.1,96,81,55,30.14,30.03,6,1,10,0.00
2014-8-31,98.2,81.5,72.0,82.4,74.8,70.2,96,82,48,30.15,30.02,5,0,9,0.18
2014-9-1,98.4,81.5,71.1,79.9,74.6,69.8,97,82,46,30.12,29.99,4,0,6,0.53
2014-9-2,96.1,78.6,73.6,79.5,74.3,72.1,97,88,56,30.09,29.99,5,0,6,0.09
2014-9-3,91.6,79.3,70.3,79.0,73.6,69.1,98,84,56,30.08,29.96,6,0,7,0.00
2014-9-4,86.4,76.7,70.0,79.7,73.6,68.5,97,90,70,30.12,30.03,5,0,8,0.62
2014-9-5,89.4,76.0,71.6,78.4,72.9,70.3,97,91,66,30.12,30.01,3,0,7,0.11
2014-9-6,86.2,76.2,72.3,79.0,74.0,71.1,98,93,75,30.04,29.91,4,0,6,1.24
2014-9-7,82.2,75.8,73.2,77.2,74.1,72.3,98,95,82,30.00,29.90,5,0,6,0.38
2014-9-8,91.0,77.1,72.7,79.3,74.1,71.8,98,91,62,30.05,29.96,4,0,9,0.43
2014-9-9,88.3,77.2,72.1,78.1,74.0,71.2,98,90,67,30.09,29.99,5,0,6,0.08
2014-9-10,90.0,78.3,72.0,79.2,74.6,71.1,98,89,62,30.06,29.97,5,0,9,0.49
2014-9-11,94.8,80.5,70.9,77.9,73.8,70.0,98,82,50,30.05,29.95,4,0,6,0.00
2014-9-12,94.8,81.0,71.2,78.1,73.8,70.0,98,81,51,30.04,29.94,6,0,7,0.00
2014-9-13,95.4,81.6,72.1,78.3,74.7,70.9,98,81,51,30.09,29.96,4,0,6,0.00
2014-9-14,94.5,81.3,72.5,77.9,74.2,71.2,98,81,50,30.15,30.05,4,0,6,0.00
2014-9-15,93.0,79.0,71.4,79.2,73.7,70.2,98,85,59,30.14,30.03,7,1,14,0.62
2014-9-16,84.9,75.2,71.6,78.4,73.6,70.3,98,95,79,30.11,29.93,4,0,9,0.74
2014-9-17,94.1,78.4,70.0,77.9,72.7,69.1,98,84,49,29.94,29.81,3,0,6,0.19
2014-9-18,93.6,78.9,68.5,76.8,71.4,66.4,98,81,42,29.94,29.85,4,0,6,0.01
2014-9-19,85.1,74.8,70.5,75.9,71.7,69.3,98,91,70,30.01,29.92,10,0,11,0.17
2014-9-20,79.9,72.9,68.4,73.6,70.0,66.2,98,91,74,30.01,29.92,10,1,16,0.10
2014-9-21,91.6,74.8,62.6,70.7,65.2,61.2,97,76,39,30.02,29.92,3,0,7,0.00
2014-9-22,92.1,75.8,62.2,74.5,66.5,60.3,98,76,43,30.03,29.92,4,1,9,0.00
2014-9-23,79.9,72.2,66.4,70.9,66.6,63.1,91,83,71,30.11,30.00,9,2,13,0.01
2014-9-24,70.0,65.5,61.7,63.5,61.1,57.9,95,86,77,30.18,30.08,7,1,12,0.00
2014-9-25,76.1,67.5,62.2,68.7,64.2,61.0,96,90,75,30.18,30.06,6,1,9,0.00
2014-9-26,78.1,71.7,65.5,72.1,69.4,63.9,98,92,81,30.08,30.01,5,1,7,0.01
2014-9-27,79.0,72.6,69.1,73.0,69.8,67.3,96,91,81,30.09,30.01,7,1,7,0.01
2014-9-28,86.7,76.5,71.6,76.6,73.1,70.3,96,90,70,30.06,29.94,4,1,7,0.04
2014-9-29,78.1,74.6,72.0,75.9,73.5,71.2,98,96,93,29.99,29.83,4,0,6,1.17
2014-9-30,80.1,72.1,67.8,73.0,69.9,66.9,98,93,76,29.89,29.81,4,1,7,0.13
2014-10-1,81.9,73.3,66.9,73.8,69.8,65.7,97,89,72,30.01,29.87,3,0,5,0.00
2014-10-2,88.5,75.6,68.7,74.7,70.2,67.5,97,85,59,30.07,29.99,5,1,9,0.00
2014-10-3,88.5,75.2,67.6,76.8,71.8,66.4,98,90,64,30.04,29.87,5,0,9,0.08
2014-10-4,81.0,71.4,54.0,72.0,61.4,45.0,98,74,42,29.96,29.81,7,1,14,0.03
2014-10-5,75.7,59.3,46.2,54.1,46.7,41.5,95,68,31,30.06,29.95,6,0,9,0.00
2014-10-6,82.0,63.7,47.5,61.3,54.0,46.0,98,75,40,30.13,30.02,4,0,6,0.00
2014-10-7,85.5,70.6,57.7,70.5,64.1,56.3,98,82,56,30.12,30.03,6,0,10,0.00
2014-10-8,90.9,74.4,61.3,73.8,67.1,59.9,99,81,47,30.16,30.03,4,0,7,0.00
2014-10-9,90.3,75.2,63.7,74.8,68.3,62.4,98,81,54,30.12,30.02,4,0,6,0.00
2014-10-10,91.9,77.1,64.2,76.1,69.4,63.1,98,80,48,30.10,29.99,5,0,5,0.01
2014-10-11,92.5,75.8,63.7,73.6,68.7,62.2,98,81,48,30.08,29.97,4,0,6,0.00
2014-10-12,91.2,75.1,63.3,75.6,67.4,62.1,98,80,46,30.11,30.00,5,0,6,0.01
2014-10-13,88.3,74.4,63.1,75.2,69.3,62.1,98,85,61,30.12,30.00,5,1,11,0.00
2014-10-14,86.2,74.0,69.8,76.1,70.9,68.5,97,91,67,30.02,29.86,9,1,13,0.23
2014-10-15,79.7,69.4,56.8,70.7,62.1,54.3,98,80,43,29.95,29.87,7,1,11,0.25
2014-10-16,78.8,63.6,52.2,59.0,55.2,50.7,97,77,45,29.93,29.85,7,1,12,0.02
2014-10-17,82.6,63.5,49.6,62.6,55.7,48.0,98,79,44,30.01,29.90,5,0,6,0.01
2014-10-18,86.4,67.8,53.2,65.8,59.5,51.8,97,78,45,29.95,29.84,7,1,10,0.00
2014-10-19,76.8,63.9,54.0,61.2,55.8,50.9,92,77,49,30.10,29.92,9,1,10,0.00
2014-10-20,84.2,65.6,51.1,68.5,59.8,49.3,98,84,55,30.10,29.94,4,0,8,0.00
2014-10-21,84.9,68.9,58.6,64.9,60.5,55.9,97,78,41,29.99,29.88,5,0,8,0.00
2014-10-22,78.1,61.5,49.6,55.9,51.3,46.8,94,73,37,30.06,29.93,7,1,10,0.00
2014-10-23,76.8,57.0,44.1,54.7,47.7,42.4,97,76,36,30.09,29.97,5,0,6,0.01
2014-10-24,78.4,58.3,44.2,57.2,49.0,42.6,98,76,35,30.06,29.94,5,0,5,0.00
2014-10-25,81.1,60.1,44.6,59.9,50.8,43.3,98,76,36,30.03,29.93,5,0,7,0.00
2014-10-26,87.6,65.0,48.6,65.7,56.8,46.9,97,78,43,29.99,29.91,5,0,6,0.00
2014-10-27,90.3,70.0,56.7,67.8,60.6,55.2,98,77,36,30.10,29.98,4,0,5,0.01
2014-10-28,86.7,68.3,54.1,67.6,60.3,52.5,98,79,43,30.17,30.07,5,0,6,0.00
2014-10-29,86.7,68.9,56.1,70.3,61.6,55.0,98,81,45,30.11,29.95,6,0,9,0.00
2014-10-30,80.4,67.3,58.8,66.6,61.6,56.1,97,83,58,29.99,29.87,5,1,7,0.03
2014-10-31,76.3,60.5,50.5,59.7,52.5,46.4,98,78,44,29.90,29.78,9,1,9,0.00
2014-11-1,57.7,50.0,40.8,47.1,37.9,29.1,85,65,45,30.16,29.83,12,2,19,0.00
2014-11-2,63.7,46.1,33.1,40.1,36.2,31.1,95,72,35,30.33,30.15,7,1,11,0.00
2014-11-3,70.7,48.5,31.3,46.2,38.6,29.5,96,73,34,30.44,30.31,6,1,9,0.00
2014-11-4,75.9,56.9,39.4,61.2,51.0,37.8,97,83,58,30.38,30.24,5,0,7,0.00
2014-11-5,79.2,65.6,54.1,66.4,59.8,52.5,100,83,58,30.28,30.15,4,0,5,0.00
2014-11-6,81.9,67.6,55.0,67.3,60.3,53.6,98,80,52,30.18,29.92,9,1,10,0.00
2014-11-7,69.4,56.4,41.0,60.3,43.2,38.1,91,64,34,30.05,29.92,6,1,12,0.00
2014-11-8,65.8,53.3,38.8,56.8,48.4,37.2,97,85,63,30.02,29.89,4,0,6,0.00
2014-11-9,74.1,60.6,49.8,58.6,52.0,47.8,93,75,51,29.98,29.88,7,1,13,0.00
2014-11-10,72.1,57.9,47.7,59.0,52.3,46.6,98,83,59,30.02,29.92,9,1,11,0.00
2014-11-11,81.7,63.1,51.3,63.7,52.9,45.1,86,71,48,29.96,29.87,7,1,11,0.00
2014-11-12,79.9,59.7,44.2,62.4,52.9,42.1,96,80,52,30.06,29.95,5,0,7,0.00
2014-11-13,76.3,64.5,55.2,64.8,59.5,48.7,97,85,66,30.06,29.96,6,1,11,0.00
2014-11-14,59.7,48.0,40.3,48.6,36.9,31.8,91,68,36,30.23,30.04,8,1,12,0.00
2014-11-15,57.0,46.3,36.0,47.8,40.1,33.8,94,80,66,30.33,30.21,11,1,12,0.00
2014-11-16,78.4,59.6,45.7,63.1,52.9,42.1,95,80,58,30.24,30.00,5,1,7,0.00
2014-11-17,76.6,63.4,47.5,69.8,60.9,39.4,98,92,73,30.05,29.75,10,2,16,0.15
2014-11-18,52.0,40.8,29.1,39.4,28.4,23.2,82,63,34,30.37,30.04,11,2,17,0.03
2014-11-19,55.0,35.2,22.3,28.9,22.5,17.4,91,66,24,30.47,30.30,7,1,7,0.11
2014-11-20,67.5,43.0,24.3,39.2,29.9,22.1,96,67,25,30.34,30.19,5,1,7,0.01
2014-11-21,72.0,48.9,32.2,45.0,38.4,30.4,97,72,32,30.37,30.25,6,1,8,0.00
2014-11-22,67.1,58.1,46.2,60.3,54.5,44.6,97,88,73,30.38,30.13,9,2,11,0.07
2014-11-23,75.7,69.0,61.2,72.9,67.7,60.3,98,96,88,30.13,29.80,6,1,13,0.88
2014-11-24,80.8,72.5,61.9,74.3,69.7,60.4,98,91,76,30.03,29.81,7,1,13,0.73
2014-11-25,67.6,61.7,56.8,64.6,60.5,55.9,98,96,89,30.07,29.88,7,1,7,1.30
2014-11-26,56.8,50.9,48.2,55.9,50.0,47.1,100,97,95,29.98,29.86,10,2,14,0.29
2014-11-27,60.4,48.8,38.3,44.6,38.3,34.0,93,70,43,30.34,30.15,9,2,17,0.00
2014-11-28,56.5,41.2,30.6,37.9,33.2,28.6,94,76,42,30.40,30.28,7,1,9,0.00
2014-11-29,68.4,46.7,30.4,49.6,39.9,28.6,97,80,46,30.37,30.26,4,0,9,0.00
2014-11-30,76.8,55.2,40.3,59.0,49.0,39.0,98,82,49,30.37,30.27,5,0,7,0.00
2014-12-1,79.3,59.5,45.9,63.1,53.4,44.2,98,83,53,30.40,30.28,5,0,7,0.00
2014-12-2,75.6,61.0,50.4,68.4,57.5,49.1,98,89,68,30.31,30.19,5,0,7,0.02
2014-12-3,78.1,62.7,55.6,65.7,59.3,54.7,98,89,64,30.27,30.17,4,1,6,0.01
2014-12-4,77.9,63.2,53.2,63.9,57.5,52.2,98,84,49,30.28,30.20,9,1,10,0.00
2014-12-5,66.9,62.3,60.4,63.7,61.0,59.5,98,95,88,30.35,30.25,6,1,9,0.00
2014-12-6,73.9,63.4,58.8,67.8,61.6,58.3,98,94,80,30.26,30.08,5,0,6,0.01
2014-12-7,63.0,56.5,51.4,62.1,53.2,47.8,97,89,82,30.22,30.06,10,2,11,0.00
2014-12-8,54.0,50.3,47.1,48.2,43.9,41.4,84,79,70,30.25,30.13,9,2,14,0.00
2014-12-9,61.2,48.7,38.8,46.2,41.5,36.5,94,77,54,30.13,29.98,8,1,13,0.00
2014-12-10,60.6,44.9,34.3,41.0,37.3,32.2,96,77,45,30.15,30.03,6,1,11,0.00
2014-12-11,59.7,43.4,33.1,40.8,36.3,31.6,96,79,44,30.18,30.07,9,1,11,0.00
2014-12-12,65.7,44.2,31.3,42.1,34.8,29.5,94,74,33,30.29,30.18,4,0,5,0.00
2014-12-13,69.4,46.3,31.6,42.8,35.1,30.4,97,72,26,30.21,30.07,5,0,7,0.01
2014-12-14,73.2,48.6,33.3,45.3,37.4,31.1,96,72,26,30.11,30.00,5,1,9,0.01
2014-12-15,72.9,49.1,33.1,46.4,39.5,31.5,97,75,33,30.12,30.03,5,0,7,0.00
2014-12-16,76.5,57.1,39.9,63.1,51.5,37.8,98,83,57,30.13,30.00,12,1,13,0.00
2014-12-17,67.5,50.4,37.2,47.7,42.9,35.4,96,78,47,30.20,30.08,6,0,9,0.00
2014-12-18,63.0,48.7,38.8,47.8,43.3,37.6,97,83,50,30.19,30.06,4,0,7,0.00
2014-12-19,67.8,52.8,40.8,48.7,43.9,38.5,95,74,37,30.16,30.05,4,0,5,0.01
2014-12-20,63.3,55.8,50.7,54.0,51.3,48.6,95,86,65,30.16,30.08,6,1,7,0.02
2014-12-21,55.0,53.2,51.6,53.2,52.1,50.7,97,96,92,30.17,30.02,6,1,10,0.64
2014-12-22,56.8,54.3,51.4,56.5,53.7,50.7,99,98,97,30.05,29.87,5,1,6,0.33
2014-12-23,66.9,62.4,56.1,66.6,62.0,55.8,99,99,98,29.97,29.80,3,0,5,0.08
2014-12-24,75.6,69.1,63.5,71.6,67.5,61.2,99,95,86,29.89,29.71,10,2,15,0.44
2014-12-25,63.3,53.1,40.6,61.2,47.1,38.8,93,81,54,30.26,29.88,10,1,14,0.01
2014-12-26,69.3,49.9,34.5,54.3,44.5,33.3,98,83,54,30.31,30.22,5,0,7,0.00
2014-12-27,74.7,57.6,46.4,62.4,53.4,44.6,97,87,64,30.30,30.17,5,1,9,0.00
2014-12-28,80.4,62.8,50.5,69.4,59.0,49.5,98,89,66,30.20,30.03,12,1,12,0.00
2014-12-29,73.6,65.7,58.6,68.2,64.1,57.2,99,95,82,30.11,29.98,5,1,10,0.09
2014-12-30,69.8,61.5,54.0,62.2,57.9,51.4,97,89,70,30.32,30.06,7,1,11,0.01
2014-12-31,54.7,47.5,43.0,52.3,44.8,40.8,95,90,84,30.43,30.30,11,2,12,0.00
2015-1-1,57.0,51.5,45.1,51.4,47.5,43.2,93,86,73,30.35,30.22,5,1,8,0.00
2015-1-2,68.4,59.2,51.3,62.4,55.8,49.6,95,89,80,30.30,30.21,6,1,0,0.00